CAPE
0 0 0 0 0 0 0 0 0 0 0 0 0 0 0 365 1678 1971 1808 2300 2335 2797 2430 2026 2612 2171 2241 2067 1435 1248 1269 1336 1362 934 617 624 591 388 323 321 188 67 43
0 0 0 0 0 0 0 0 0 0 0 0 0 0 0 0 135 1410 1929 1776 2282 2300 2596 2461 2202 2154 2213 2111 1891 1288 1366 1417 1415 1077 814 401 472 446 308 290 219 99 14
0 0 0 0 0 0 0 0 0 0 0 0 0 0 0 0 29 0 1219 2047 2044 2140 1910 2428 2209 2046 2071 2051 2101 1599 1450 1399 1396 1067 762 460 367 475 373 267 215 199 136
0 0 0 0 0 0 0 0 0 0 0 0 0 2 2 2 2 0 320 440 2255 2222 2326 2059 2334 1982 1955 2095 1995 1826 1464 1410 1328 1040 826 409 334 223 189 329 352 280 228
0 0 0 0 0 0 0 1 0 0 0 0 0 1 3 2 2 0 0 399 1270 1754 2322 1986 2112 2303 2169 1876 1892 1619 1416 1277 1003 748 493 531 372 369 201 197 288 338 230
0 0 0 0 0 0 0 0 1 0 0 0 0 0 2 2 3 2 0 308 875 1796 1847 1773 1961 2094 2184 1787 1558 1300 1310 1005 692 517 310 336 342 203 383 191 217 237 171
0 0 0 0 0 0 1 0 0 2 1 0 1 0 0 2 3 4 4 5 1047 1212 1314 1878 1752 1788 1837 1522 1390 1068 954 663 465 101 183 286 365 332 332 286 154 107 107
0 0 0 0 0 0 1 1 0 1 1 1 1 1 0 3 2 2 3 5 365 1200 965 1230 1664 1623 1377 912 721 383 307 268 29 8 133 281 320 315 201 84 64 100 130
0 0 0 0 1 0 0 0 0 1 0 0 1 1 1 1 3 1 2 3 2 25 501 671 851 738 633 425 229 70 0 0 9 20 179 365 320 305 146 90 53 14 17
0 0 0 0 1 0 0 0 0 2 0 1 1 2 2 0 2 2 0 1 2 0 58 255 178 106 60 3 0 0 0 0 0 142 186 306 293 142 94 47 62 31 138
0 0 0 0 0 0 0 0 0 0 0 0 2 1 1 2 2 2 1 0 2 0 1 0 96 361 282 47 0 0 0 8 0 44 194 288 351 188 164 92 120 128 237
0 0 0 0 0 0 0 0 0 1 0 1 1 1 0 1 2 2 2 0 0 6 0 0 0 0 0 30 316 364 339 334 221 382 499 412 383 328 284 325 314 276 222
0 0 0 0 0 0 0 0 0 0 0 1 0 1 1 0 0 2 2 2 0 1 0 0 0 0 0 0 0 0 0 1 1 1 124 309 315 323 325 299 266 194 143
0 0 0 0 0 0 0 0 0 0 0 0 0 1 1 0 0 0 1 2 4 2 0 0 0 0 0 0 0 0 0 0 0 0 0 0 23 211 194 147 168 168 116
0 0 0 0 0 0 0 0 0 0 0 0 0 0 0 0 0 0 0 1 3 0 0 0 0 0 0 0 0 0 0 0 0 0 0 0 0 0 4 70 115 126 110
0 0 0 0 0 0 0 0 0 0 0 0 0 0 0 0 0 0 0 0 0 2 0 0 0 0 0 0 0 0 1 1 0 1 0 0 0 0 0 0 0 1 64
0 0 0 0 0 0 0 0 0 0 0 0 0 0 0 0 0 0 0 0 0 0 0 0 0 0 0 0 0 0 0 0 0 0 1 1 0 2 2 0 1 0 0
0 0 0 0 0 0 0 0 0 0 0 0 0 0 0 0 0 0 0 1 0 0 0 0 0 0 0 0 0 0 0 0 0 0 1 2 1 0 1 4 0 0 0
0 0 0 0 0 0 0 0 0 0 0 0 0 0 0 0 1 1 0 0 0 0 0 0 0 0 0 0 0 0 0 0 0 1 1 0 1 0 0 4 2 0 0
0 0 0 0 0 0 0 0 0 0 0 0 0 0 0 0 1 0 1 0 1 0 0 0 0 0 0 1 0 0 1 1 1 0 0 0 0 0 0 4 6 0 0
0 0 0 0 0 0 0 0 0 0 0 0 0 1 0 0 0 0 0 0 0 0 0 0 0 0 0 1 0 0 0 1 1 1 0 1 0 1 0 2 3 1 3
0 0 0 0 0 0 0 0 0 0 0 1 0 0 1 1 0 0 0 1 0 0 0 0 0 0 0 1 1 1 2 1 1 0 0 0 1 1 1 2 1 0 1
0 0 0 0 0 0 0 0 0 0 0 0 0 0 1 1 0 0 0 0 0 0 0 0 0 0 0 0 0 0 1 1 0 0 0 0 1 0 0 0 0 1 2
0 0 0 0 0 0 0 0 0 0 0 1 0 0 2 1 1 0 0 0 0 0 0 0 0 0 0 0 0 0 0 1 0 0 0 0 0 0 0 0 0 0 2
0 0 0 0 0 0 0 0 0 0 0 1 0 0 0 0 0 0 0 0 1 0 1 0 0 0 0 0 1 3 1 1 0 0 0 0 0 0 0 0 1 0 0
0 0 0 0 0 0 0 0 2 0 0 0 0 1 1 0 0 0 1 2 2 1 5 4 3 0 1 1 2 0 0 0 0 0 1 2 0 1 1 1 1 1 1
CIN
-0 -0 -0 -0 -0 -0 -0 -0 -0 -0 -0 -0 -0 -0 -0 -23 -4 -1 -3 -4 -5 -15 -71 -65 -11 -30 -5 -6 -53 -83 -40 -12 -18 -39 -15 -19 -29 -31 -36 -36 -36 -60 -75
-0 -0 -0 -0 -0 -0 -0 -0 -0 -0 -0 -0 -0 -0 -0 -0 -6 -7 -9 -8 -5 -6 -14 -48 -37 -16 -5 -4 -15 -48 -26 -8 -8 -51 -28 -10 -8 -22 -32 -46 -47 -46 -56
-0 -0 -0 -0 -0 -0 -0 -0 -0 -0 -0 -0 -0 -0 -0 -17 -99 -0 -9 -9 -5 -4 -12 -5 -28 -20 -3 -5 -9 -23 -8 -10 -10 -24 -43 -17 -16 -11 -17 -38 -53 -31 -28
-0 -0 -0 -0 -0 -0 -0 -0 -0 -0 -0 -0 -0 -0 -0 -0 -0 -0 -89 -23 -6 -9 -4 -9 -5 -26 -17 -1 -2 -14 -18 -7 -5 -29 -25 -55 -67 -30 -10 -12 -25 -20 -27
-0 -0 -0 -0 -0 -0 -0 -0 -0 -0 -0 -0 -0 -0 -0 -0 -0 -0 -0 -88 -5 -6 -4 -3 -6 -0 -0 -5 -2 -7 -2 -10 -35 -33 -6 -33 -46 -46 -48 -9 -19 -11 -31
-0 -0 -0 -0 -0 -0 -0 -0 -0 -0 -0 -0 -0 -0 -0 -0 -0 -0 -0 -139 -20 -8 -4 -5 -11 -5 -1 -7 -4 -14 -3 -55 -65 -106 -39 -11 -34 -74 -5 -7 -6 -23 -58
-0 -0 -0 -0 -0 -0 -0 -0 -0 -0 -0 -0 -0 -0 -0 -0 -0 -0 -0 -43 -37 -6 -12 -11 -11 -17 -9 -9 -11 -11 -1 -22 -79 -55 -29 -32 -6 -26 -13 -4 -13 -15 -28
-0 -0 -0 -0 -0 -0 -0 -0 -0 -0 -0 -0 -0 -0 -0 -0 -0 -0 -0 -0 -68 -3 -16 -12 -4 -5 -4 -17 -36 -35 -56 -27 -139 -20 -6 -0 -25 -49 -29 -23 -15 -10 -1
-0 -0 -0 -0 -0 -0 -0 -0 -0 -0 -0 -0 -0 -0 -0 -0 -0 -0 -0 -0 -0 -155 -49 -93 -65 -65 -45 -50 -65 -141 -0 -0 -41 -10 -3 -1 -10 -18 -26 -61 -85 -55 -19
-0 -0 -0 -0 -4 -0 -0 -0 -1 -0 -0 -0 -0 -0 -0 -0 -0 -0 -0 -0 -0 -0 -97 -44 -97 -128 -132 -143 -0 -0 -0 -0 -0 -60 -2 -5 -11 -67 -48 -73 -90 -54 -5
-0 -0 -0 -0 -0 -0 -0 -0 -0 -0 -0 -0 -0 -0 -0 -0 -0 -0 -0 -0 -0 -0 -0 -0 -51 -3 -8 -29 -0 -0 -0 -103 -0 -88 -7 -4 -11 -21 -31 -16 -54 -57 -1
-0 -0 -0 -0 -0 -0 -0 -0 -0 -0 -0 -1 -0 -0 -0 -0 -0 -0 -0 -0 -0 -0 -0 -0 -0 -0 -3 -25 -2 -0 -0 -2 -5 -5 -0 -2 -2 -10 -9 -15 -0 -5 -0
-0 -0 -0 -0 -0 -0 -0 -0 -0 -0 -0 -0 -0 -0 -0 -0 -0 -0 -0 -0 -0 -0 -0 -0 -0 -0 -0 -0 -0 -0 -0 -0 -0 -134 -68 -16 -0 -0 -0 -0 -0 -11 -2
-0 -0 -0 -0 -0 -0 -0 -0 -0 -0 -0 -0 -0 -0 -0 -0 -0 -0 -0 -0 -0 -0 -0 -0 -0 -0 -0 -0 -0 -0 -0 -0 -0 -0 -0 -0 -62 -0 -2 -11 -2 -3 -0
-0 -0 -0 -0 -0 -0 -0 -0 -0 -0 -0 -2 -0 -0 -1 -0 -0 -0 -0 -0 -0 -0 -0 -0 -0 -0 -0 -0 -0 -0 -0 -0 -0 -0 -0 -0 -0 -0 -19 -11 -0 -0 -0
-0 -0 -0 -0 -0 -0 -0 -0 -0 -0 -0 -0 -0 -0 -0 -0 -0 -0 -0 -0 -0 -0 -0 -0 -0 -0 -0 -0 -0 -0 -0 -0 -0 -0 -0 -0 -0 -0 -0 -0 -0 -3 -2
-0 -0 -0 -0 -0 -0 -0 -0 -0 -0 -0 -0 -0 -0 -0 -0 -0 -0 -0 -0 -0 -0 -0 -0 -0 -0 -0 -0 -0 -0 -0 -0 -0 -0 -0 -0 -0 -0 -0 -0 -0 -0 -0
-0 -0 -0 -0 -0 -0 -0 -0 -0 -0 -0 -0 -0 -0 -0 -0 -0 -0 -0 -0 -0 -0 -0 -0 -1 -1 -0 -0 -0 -0 -0 -0 -0 -0 -0 -0 -0 -0 -0 -0 -0 -0 -0
-0 -0 -0 -0 -0 -0 -0 -0 -0 -0 -0 -0 -0 -0 -0 -0 -0 -0 -0 -0 -0 -0 -0 -0 -0 -0 -0 -0 -0 -0 -0 -0 -0 -0 -1 -0 -0 -0 -0 -0 -0 -0 -0
-0 -0 -0 -0 -0 -0 -0 -0 -0 -0 -0 -0 -0 -0 -0 -0 -0 -0 -0 -0 -0 -0 -0 -0 -0 -0 -0 -0 -0 -0 -0 -0 -0 -0 -0 -0 -0 -0 -0 -0 -0 -0 -0
-0 -0 -0 -0 -0 -0 -0 -0 -0 -0 -0 -1 -0 -1 -1 -0 -0 -0 -0 -0 -0 -0 -0 -0 -0 -0 -0 -0 -0 -0 -0 -0 -0 -0 -0 -0 -0 -0 -0 -0 -0 -0 -0
-0 -0 -0 -0 -0 -0 -0 -0 -0 -0 -0 -2 -2 -3 -1 -1 -2 -3 -0 -3 -3 -1 -0 -0 -0 -0 -0 -0 -0 -0 -0 -0 -0 -0 -0 -0 -0 -0 -0 -0 -0 -0 -0
-0 -0 -0 -0 -0 -0 -0 -0 -0 -0 -4 -2 -2 -2 -2 -2 -1 -2 -0 -1 -2 -0 -0 -0 -0 -0 -0 -0 -0 -0 -0 -0 -0 -0 -1 -0 -0 -0 -0 -0 -0 -0 -0
-0 -0 -0 -0 -0 -0 -0 -0 -0 -0 -1 -2 -0 -0 -1 -2 -2 -2 -1 -0 -1 -1 -2 -0 -0 -0 -0 -0 -0 -0 -2 -0 -1 -0 -0 -0 -0 -0 -0 -0 -0 -0 -0
-0 -0 -0 -0 -0 -0 -0 -0 -1 -0 -0 -2 -1 -2 -3 -2 -4 -2 -2 -0 -0 -3 -2 -0 -0 -0 -0 -0 -2 -1 -2 -2 -0 -0 -0 -3 -1 -1 -0 -0 -0 -0 -0
-0 -0 -0 -0 -0 -0 -0 -3 -1 -2 -3 -4 -3 -3 -3 -3 -4 -5 -5 -1 -0 -2 -1 -0 -1 -1 -2 -1 -1 -1 -2 -0 -0 -0 -0 -2 -1 -1 -0 -0 -0 -0 -0
Wind_Speed
28 33 37 38 38 37 38 39 40 40 40 39 39 41 41 36 32 33 38 33 28 26 25 24 25 23 24 22 21 18 19 18 15 19 24 19 12 10 9 9 11 9 8
32 35 38 38 39 39 40 40 41 41 40 40 42 42 42 42 39 33 33 36 36 31 29 29 29 29 30 27 26 23 23 23 20 21 22 24 22 20 14 13 13 14 12
34 36 37 38 39 40 42 42 42 42 40 42 43 44 44 42 41 40 37 33 33 34 32 33 32 31 30 31 29 29 26 27 26 23 24 25 27 22 21 18 17 17 17
35 37 39 41 41 41 41 42 43 44 41 42 42 43 43 46 47 46 43 40 35 35 36 32 35 35 34 34 33 31 31 30 30 28 25 21 20 25 28 23 21 20 18
35 39 41 42 42 43 43 43 42 43 43 43 42 42 45 47 49 49 50 48 39 38 38 36 33 34 34 34 34 34 32 32 32 30 32 29 22 24 29 29 22 20 20
37 40 40 42 44 44 45 46 46 45 45 44 44 43 45 47 50 51 51 50 45 39 39 40 37 36 37 38 38 35 34 33 31 28 27 38 31 30 29 28 26 24 23
39 42 43 44 45 45 46 46 47 49 47 46 45 45 44 45 47 48 50 52 52 45 42 40 40 40 41 40 38 36 33 32 30 27 32 28 30 28 28 29 30 29 25
38 40 41 42 44 45 46 47 48 49 48 48 46 45 44 42 43 45 46 46 48 50 46 43 41 42 42 38 35 31 30 29 29 27 26 23 30 26 25 26 28 35 33
39 41 40 42 43 46 47 46 48 48 48 48 46 45 43 43 42 42 41 39 40 43 43 39 39 35 34 32 29 30 29 25 29 39 24 27 30 20 26 23 26 34 33
39 41 40 41 40 45 45 43 44 46 46 46 44 43 43 40 39 39 39 36 38 38 35 35 32 30 29 27 26 26 31 31 26 22 26 25 24 24 23 31 32 37 34
39 40 40 39 39 42 43 42 42 44 46 45 44 43 42 38 37 35 34 32 34 34 31 25 25 25 26 25 26 27 25 19 23 22 24 19 18 21 30 35 34 37 37
38 38 39 38 39 40 41 41 42 42 44 43 43 42 39 35 32 34 33 29 31 34 28 19 20 20 20 20 20 23 26 23 25 25 18 26 31 22 23 31 30 32 36
38 38 38 38 38 37 40 40 41 41 42 42 42 40 36 34 33 32 32 29 30 30 28 22 20 21 24 22 21 19 20 22 23 26 26 29 28 26 24 26 34 33 36
38 37 37 38 39 37 40 39 40 41 40 40 39 38 35 33 30 32 29 28 26 28 25 19 21 22 18 21 23 23 26 29 30 29 28 28 31 31 28 28 30 38 40
36 36 36 37 38 38 39 39 40 39 40 38 38 38 34 33 30 30 28 28 26 23 24 18 20 22 18 22 25 26 27 29 29 30 31 31 33 34 35 36 36 35 41
33 35 34 37 38 37 38 39 39 35 38 39 37 36 31 31 28 28 27 26 26 24 22 20 23 22 20 24 24 26 28 28 29 30 30 32 33 34 36 37 42 42 43
34 34 35 36 36 36 37 38 36 31 35 38 36 33 30 26 27 25 25 25 25 24 24 25 24 24 24 24 25 28 28 29 29 29 30 32 32 33 36 40 41 40 44
32 32 33 36 35 35 35 36 33 35 31 28 34 32 31 29 28 28 29 28 25 24 23 22 23 23 23 24 27 29 28 29 28 30 30 31 32 31 34 37 40 42 43
30 30 33 36 35 35 36 36 35 35 37 37 21 30 32 31 30 29 29 28 28 26 25 25 25 24 24 26 27 29 29 31 31 31 32 33 33 33 35 37 39 40 42
29 30 34 35 34 35 35 36 36 36 37 37 36 35 25 29 30 31 30 29 28 27 27 27 27 26 28 28 29 30 31 33 35 35 34 33 33 36 37 38 39 40 39
29 29 32 35 35 35 35 36 36 36 37 37 36 35 34 31 28 28 28 29 29 28 28 27 28 28 29 30 31 33 33 35 36 36 36 36 37 39 40 39 39 40 39
33 33 34 35 35 35 36 36 36 37 37 37 37 35 35 34 33 32 31 30 29 29 29 30 29 30 31 31 32 34 35 36 37 38 38 39 42 41 40 39 37 41 40
34 34 35 34 34 35 36 36 37 37 38 37 37 35 35 34 34 34 33 32 32 32 31 31 32 33 33 33 35 37 38 37 38 39 41 43 42 41 38 37 38 37 36
34 35 34 34 34 36 36 36 37 37 37 37 37 36 35 35 35 34 34 34 33 34 34 34 35 36 36 36 38 38 39 40 41 42 43 42 41 39 38 37 37 36 36
34 34 34 35 36 37 37 37 37 37 37 37 37 36 36 36 35 34 34 34 33 35 36 35 36 38 39 40 41 42 42 42 42 43 40 40 40 40 39 38 38 37 37
33 34 35 36 36 37 37 36 36 37 37 38 36 35 34 35 34 35 35 34 35 35 34 35 36 36 39 41 41 41 42 42 41 39 38 40 39 41 41 41 41 39 38
Wind_Direction
340 341 337 335 332 331 327 322 317 315 311 306 303 298 294 293 281 274 270 268 260 254 251 252 263 260 262 260 258 260 266 269 268 280 290 292 288 282 276 283 290 287 292
335 335 333 334 333 331 327 324 320 315 311 307 300 297 292 287 287 277 271 267 268 260 257 256 258 262 267 263 263 258 266 270 267 271 283 286 291 291 284 280 279 282 284
333 333 334 334 333 332 329 326 323 318 314 309 303 298 293 291 285 282 279 267 264 264 258 261 260 262 261 264 262 261 258 263 266 262 275 282 284 292 286 276 275 275 276
333 332 333 331 330 331 331 329 327 322 318 313 307 300 293 287 285 283 284 273 271 265 265 260 264 264 265 265 262 260 260 261 260 264 256 271 288 291 292 282 273 273 271
334 331 331 332 331 333 333 333 331 327 321 316 309 303 295 290 287 283 280 278 272 267 265 263 261 264 264 264 263 261 258 257 262 263 266 264 270 283 288 285 278 276 271
332 330 333 331 330 331 331 331 329 327 322 316 310 304 298 293 288 283 279 278 276 268 263 266 264 264 265 266 268 264 260 261 263 265 271 282 277 277 275 279 281 272 273
331 331 331 331 332 334 333 332 329 326 324 318 313 307 301 296 290 285 280 276 271 270 266 265 267 267 267 268 268 266 264 262 265 265 276 277 276 282 277 274 273 277 273
334 333 334 334 332 332 330 328 326 325 323 322 316 311 305 300 296 291 286 279 276 270 268 268 269 270 270 269 268 270 270 269 263 283 277 267 275 282 277 273 273 275 275
334 333 333 333 331 330 330 329 327 325 324 323 319 315 311 302 297 296 291 288 283 278 268 269 269 272 272 267 264 262 266 270 278 274 276 274 280 279 271 268 270 272 278
334 335 334 334 334 333 333 332 331 329 327 324 323 317 314 309 300 297 295 294 287 283 278 268 267 266 267 266 269 264 273 270 269 268 273 269 272 276 278 268 270 272 277
336 336 337 337 337 336 336 335 331 329 325 322 320 322 317 308 304 299 298 295 288 287 281 276 274 267 267 267 267 275 276 274 276 274 276 268 272 276 279 272 274 272 273
338 339 339 340 339 339 337 331 330 330 326 326 324 326 319 302 304 297 297 294 291 286 285 278 280 278 278 285 283 283 280 282 276 276 271 279 279 280 279 276 274 272 273
337 339 339 341 341 342 334 331 332 332 333 329 324 325 315 310 306 307 300 291 290 285 282 285 284 283 282 288 294 299 294 289 289 284 288 285 285 283 281 279 272 273 272
340 340 339 338 338 341 333 335 332 336 337 336 322 320 318 308 307 309 306 299 295 293 290 291 286 289 288 292 296 297 294 286 282 284 286 286 283 285 284 281 280 272 269
344 343 342 344 338 336 332 332 333 331 339 343 327 329 319 320 312 310 308 313 303 304 289 297 290 289 300 300 300 296 295 287 286 284 285 286 285 284 284 281 280 278 274
350 348 348 340 331 327 330 333 332 319 341 344 335 334 318 320 318 315 313 312 299 293 305 295 290 294 301 303 305 299 292 288 287 288 290 288 289 289 286 287 277 276 275
349 349 346 341 323 325 334 331 324 315 330 343 333 325 320 310 318 312 315 318 310 309 301 294 292 292 297 302 303 300 291 288 289 292 293 292 293 293 291 283 280 282 273
351 354 350 333 320 324 335 329 318 327 322 317 327 323 323 319 317 321 322 327 317 316 313 301 296 290 292 310 307 302 292 290 294 293 295 296 296 298 296 294 287 283 278
352 353 349 332 318 325 330 328 323 334 337 335 309 319 324 325 322 320 318 318 317 318 308 306 297 295 300 308 308 304 298 294 293 294 295 294 298 300 299 295 293 289 281
354 354 343 339 324 324 332 328 329 336 331 326 325 327 310 317 321 327 326 323 330 321 316 309 306 305 307 311 312 309 302 292 291 291 293 296 297 298 298 295 291 290 288
356 357 352 337 332 332 333 329 333 334 331 327 325 325 325 318 315 313 317 322 323 323 321 316 322 323 318 304 311 305 300 295 293 292 293 294 293 293 292 294 292 287 291
341 344 346 338 336 334 333 327 332 331 329 327 327 325 329 326 323 321 320 318 318 320 322 321 320 321 317 311 307 304 302 301 297 293 292 293 291 291 291 293 295 288 289
333 338 335 343 344 337 333 330 334 331 329 328 326 326 330 329 327 325 323 322 324 322 317 317 318 316 315 313 309 307 305 301 296 294 292 291 292 293 295 295 296 297 295
333 335 339 341 346 337 335 333 333 331 328 328 325 326 330 329 331 332 330 324 323 322 319 316 314 314 312 311 309 306 306 304 301 298 297 295 294 295 295 296 297 298 296
334 336 336 337 340 337 331 333 333 332 331 330 330 331 332 332 333 335 333 330 329 326 321 320 318 316 314 313 309 308 308 306 304 302 302 300 298 295 295 295 295 296 295
338 334 334 333 337 336 331 332 333 331 331 330 331 336 340 336 336 334 332 333 331 330 330 327 324 323 318 314 313 313 310 308 309 309 307 304 302 298 296 294 293 294 294